Wind_Speed
8 8 8 7 7 7 8 8 8 7 7 7 6 7 7 7 7 7 8 8 8 8 7 7 7 8 8 8 8 8 8 8 7 6 9 11 12 12 10 9 8 7 7 7 6 5 5 5 7 7 8 10 10 10 10 10 10 10 11 9 10 13 12 14 15 15 16 15 15 12 7 7 9 9 12 13 13 13 13 14 14 12 11 11 15 17 16 21
9 8 8 8 7 7 7 8 8 8 8 7 7 7 7 7 7 7 8 8 9 9 8 8 8 8 8 8 9 9 9 9 8 8 10 10 10 11 10 10 9 8 9 9 8 6 4 4 6 7 8 9 9 9 9 9 10 11 9 8 11 11 11 13 13 13 13 13 15 14 9 7 8 9 12 13 13 13 14 15 14 13 13 13 18 19 18 22
9 9 9 8 8 7 7 7 7 8 7 8 8 7 7 7 7 7 8 8 9 9 9 8 8 8 8 9 9 10 10 9 9 10 9 6 8 11 11 11 11 10 9 8 8 6 5 5 6 7 8 9 8 8 8 7 8 9 9 9 9 9 10 11 12 12 11 12 13 14 11 7 7 8 11 13 13 13 14 14 13 11 11 14 20 21 20 23
10 10 9 9 8 8 7 7 7 7 7 8 8 8 8 8 7 8 8 8 9 10 10 9 9 9 9 9 10 10 10 9 11 10 8 8 11 13 13 12 12 10 8 7 6 6 6 6 6 6 7 7 6 7 7 6 7 8 9 8 7 8 9 9 10 10 9 10 11 12 11 8 6 7 9 12 14 14 14 13 10 8 7 11 19 21 22 23
11 11 10 10 9 8 8 7 7 7 7 7 8 8 8 8 8 8 8 8 9 10 11 10 10 9 9 10 10 11 11 8 11 11 10 12 13 15 16 14 12 10 8 7 6 6 7 6 6 5 6 5 4 6 5 4 6 8 8 7 6 7 7 8 8 8 8 9 9 10 11 9 6 6 8 10 12 13 13 12 10 9 6 10 18 21 22 23
11 11 11 10 9 9 8 8 7 7 7 7 8 8 9 9 8 8 8 9 9 10 11 11 11 10 10 10 10 12 13 9 11 13 12 13 14 16 17 14 13 11 9 8 7 7 7 6 5 5 4 3 4 4 4 4 5 6 6 6 6 6 7 7 7 7 8 8 8 9 9 9 8 6 7 9 11 12 13 11 11 11 10 13 17 20 22 22
11 12 12 11 10 9 9 8 7 7 7 7 7 8 9 9 9 9 9 9 9 10 12 12 11 11 10 11 11 13 15 12 11 14 13 13 14 16 18 15 13 12 11 9 8 8 7 6 5 5 4 2 3 3 3 3 4 5 5 5 5 6 6 7 7 8 8 8 8 8 8 8 9 6 4 6 7 10 13 11 11 14 13 16 19 19 20 21
12 12 12 12 11 10 9 9 8 7 7 7 7 7 8 9 9 9 9 9 10 11 12 12 12 12 11 11 12 13 16 14 12 15 15 13 14 15 16 14 13 13 12 10 10 9 7 6 5 4 3 1 2 3 3 3 3 4 4 3 4 6 7 7 7 8 8 8 8 7 7 7 8 7 4 3 5 8 11 11 12 15 15 18 20 20 20 21
13 13 13 12 11 10 10 9 8 7 7 7 7 7 8 9 9 9 9 9 10 11 12 12 12 12 12 12 12 12 15 15 13 16 16 14 14 14 15 13 13 14 13 12 11 10 8 7 6 4 2 1 2 2 2 3 3 3 4 4 6 8 7 7 7 7 8 8 8 6 6 6 7 7 6 4 3 7 10 11 12 15 16 18 20 20 20 22
14 14 13 13 12 11 10 10 9 7 7 7 7 7 7 8 9 9 10 10 10 11 12 12 13 13 13 12 13 13 15 15 14 17 17 15 14 13 14 14 14 14 14 13 12 11 9 8 7 5 2 2 1 1 2 3 2 4 6 6 7 8 7 7 7 8 8 8 7 6 6 6 7 7 6 6 4 6 9 10 12 15 17 19 21 21 21 22
14 14 13 13 12 12 11 10 10 8 7 7 7 7 7 7 9 9 9 10 10 11 12 13 13 13 13 13 14 14 15 16 16 17 18 16 15 14 14 15 16 15 15 15 13 12 11 10 9 6 3 2 2 2 1 1 3 6 7 6 7 7 7 8 8 8 9 8 7 5 6 6 6 6 5 6 6 5 8 9 11 15 18 19 20 22 22 22
15 14 13 13 13 12 12 11 10 8 7 7 7 7 7 7 8 9 9 9 9 11 12 12 14 14 14 14 16 15 15 16 17 17 18 17 16 16 16 16 18 18 17 17 15 14 14 13 11 8 5 3 2 2 1 1 3 6 7 7 6 7 8 8 8 9 9 9 8 6 5 6 5 5 5 5 6 6 6 9 11 14 17 19 20 22 22 23
16 14 14 14 14 13 12 12 11 9 7 7 7 7 7 7 8 9 8 8 9 10 11 12 13 14 15 16 16 15 15 17 17 17 17 17 17 17 18 18 19 20 19 19 17 17 17 15 12 11 9 6 4 2 2 0 3 5 5 6 4 4 5 7 8 8 10 9 8 6 3 5 5 4 4 4 5 6 5 7 11 14 17 19 20 21 23 23
16 15 15 15 15 14 13 13 12 10 8 7 7 7 7 7 8 9 8 8 8 9 10 11 13 14 16 16 16 16 16 17 17 17 17 17 17 18 20 19 20 21 20 19 18 18 18 15 13 11 9 8 6 4 3 2 3 3 3 4 2 1 2 5 7 8 10 10 9 8 4 4 5 2 3 4 4 4 5 5 10 14 17 19 20 20 22 23
16 16 17 17 16 15 13 13 13 11 9 8 8 7 7 8 9 9 8 7 7 8 9 11 13 15 16 16 16 16 17 18 18 17 16 16 16 17 20 20 22 22 21 20 19 18 18 15 12 11 10 7 5 4 4 4 1 2 2 1 1 2 2 4 8 9 10 10 10 9 6 6 6 3 3 3 3 2 3 4 8 13 16 19 20 20 21 23
16 17 18 18 17 15 14 14 14 12 9 8 8 8 8 8 9 9 8 7 7 7 7 10 12 14 15 16 17 17 18 19 19 17 16 15 14 16 19 21 23 24 22 20 19 18 17 15 12 11 9 5 4 6 6 4 4 1 3 2 2 3 3 4 8 8 10 10 10 10 6 5 7 5 4 3 2 2 1 3 6 12 16 19 21 21 21 23
17 18 19 19 17 16 14 14 15 13 10 9 8 8 9 9 10 9 8 8 7 6 7 8 11 14 14 15 16 18 20 21 20 18 16 14 14 14 18 21 22 24 23 20 18 18 16 15 11 7 6 5 4 5 5 4 4 1 5 4 3 5 4 4 7 8 9 11 10 12 8 5 8 8 6 4 3 3 1 2 5 11 17 20 22 23 22 23
17 19 20 19 16 15 14 14 15 13 10 9 9 9 9 9 9 9 8 8 7 6 7 8 10 11 11 13 17 19 20 21 21 20 18 17 16 14 16 20 22 22 21 18 18 17 15 13 10 6 6 6 5 4 4 2 2 5 7 6 5 6 4 4 7 6 8 10 9 12 10 8 12 11 8 6 4 3 3 3 4 10 17 20 22 23 24 23
17 19 19 17 15 14 13 14 15 13 11 10 9 9 10 10 9 9 9 8 9 8 8 9 12 12 10 14 18 19 19 21 21 21 20 19 18 15 15 18 21 21 20 17 15 17 14 10 9 8 7 6 5 4 3 4 5 6 7 8 8 7 5 5 7 5 7 9 6 9 8 9 13 12 10 8 4 4 4 5 4 8 16 22 22 23 25 24
17 18 17 15 14 13 12 14 14 13 11 10 9 9 9 9 8 8 9 9 10 10 9 9 13 16 13 14 17 18 19 20 20 20 20 20 20 16 15 18 20 21 20 14 12 16 14 10 10 9 7 6 5 5 4 5 5 6 7 8 8 7 5 5 6 5 8 8 4 8 10 10 12 11 11 9 5 2 4 6 5 5 14 22 24 24 25 24
17 17 16 14 13 12 12 13 14 12 11 10 9 8 9 10 9 9 10 9 9 10 10 9 12 15 13 12 16 19 19 20 20 20 19 19 19 16 14 18 20 20 20 14 10 14 14 11 10 9 9 7 6 6 5 5 6 7 7 8 7 6 5 5 5 5 9 8 5 10 13 11 10 10 12 10 6 2 3 5 5 4 10 20 25 25 26 26
16 16 15 14 13 11 11 13 13 12 11 9 8 8 10 11 11 11 10 8 9 10 9 9 11 14 11 10 15 19 19 19 20 19 18 18 18 15 14 18 19 16 18 18 12 11 13 11 9 10 11 8 5 5 5 6 7 7 6 6 5 3 4 4 5 7 8 7 6 11 12 8 7 12 13 10 5 3 2 4 6 5 9 18 23 25 27 28
15 15 14 14 12 10 11 13 13 11 10 9 8 9 11 12 12 12 11 7 7 9 9 9 11 12 10 10 15 18 17 18 19 19 17 16 17 18 16 17 17 14 16 19 15 10 10 10 10 11 10 7 4 5 5 6 6 6 6 6 5 4 5 4 5 8 7 6 8 12 11 7 7 14 13 9 6 3 2 3 5 5 8 15 21 24 26 29
14 14 14 14 11 9 11 13 12 10 9 8 8 9 11 12 12 12 11 8 6 8 9 10 11 11 10 11 14 16 15 15 17 17 16 15 18 18 15 15 16 14 14 16 15 12 9 8 10 9 7 5 4 5 5 6 7 6 7 7 6 6 7 6 7 8 6 5 9 14 9 6 9 15 14 10 8 5 2 3 4 5 7 12 20 23 25 27
13 14 14 13 10 10 12 12 11 9 9 8 9 10 11 12 12 12 11 8 6 8 9 10 10 10 11 12 13 14 14 14 15 15 14 15 16 15 14 16 16 13 13 15 15 14 10 9 8 5 4 4 4 5 5 6 6 5 4 4 5 6 7 7 7 7 5 5 7 12 7 4 7 13 14 11 9 7 3 2 3 5 6 11 18 23 24 26
13 14 13 11 9 10 12 11 10 8 8 8 9 11 12 12 12 11 10 7 6 8 9 10 9 9 12 12 12 12 11 11 13 14 14 14 15 15 14 16 15 11 13 14 13 14 13 11 9 6 5 6 6 6 6 5 5 5 3 2 5 6 6 7 6 6 5 5 7 8 7 5 5 8 13 10 8 9 7 2 3 5 6 8 15 21 24 26
13 12 11 9 9 10 11 10 9 8 8 9 10 12 12 12 11 11 9 6 8 9 10 12 10 11 14 13 12 10 7 11 12 13 14 14 15 15 12 12 13 13 12 12 10 11 13 12 12 9 7 8 7 6 6 6 6 4 3 5 7 6 7 7 6 6 5 6 8 5 6 8 4 4 9 7 7 10 9 4 2 4 5 7 11 18 23 26
10 9 8 8 8 9 9 9 9 9 9 10 11 12 12 12 12 13 8 3 7 10 12 14 13 14 16 14 14 10 6 9 7 11 16 15 14 13 10 9 11 12 12 13 11 8 9 10 10 11 10 10 9 6 5 6 6 5 5 6 5 5 6 6 6 6 4 6 7 3 5 7 3 3 6 7 8 9 10 7 1 3 4 6 8 13 20 25
7 6 6 7 8 9 10 9 9 10 11 11 12 12 12 13 13 12 5 3 8 10 11 14 13 16 16 13 15 9 6 9 5 10 16 15 15 14 10 9 9 8 11 14 13 8 6 8 11 13 12 10 8 6 6 6 6 6 5 5 5 5 5 5 6 7 5 7 7 2 4 6 3 1 2 6 7 6 9 7 0 3 2 3 5 8 14 21
4 4 5 7 8 10 10 10 11 11 11 12 13 13 14 15 12 8 5 4 9 10 14 16 12 16 16 12 13 8 6 9 5 9 15 14 14 13 11 11 9 7 8 11 14 13 9 11 14 15 13 11 8 6 6 6 5 4 4 5 6 7 6 6 7 6 7 7 5 2 3 6 4 1 0 4 4 2 4 6 3 1 1 1 2 4 9 16
2 3 5 7 8 10 10 11 12 11 12 13 14 15 15 14 9 6 5 7 8 9 16 17 12 15 16 12 12 9 7 8 5 10 15 13 13 11 10 10 9 8 8 10 13 14 15 15 14 14 14 13 8 5 5 5 3 3 4 5 8 8 7 8 9 7 7 5 2 2 3 4 3 2 3 4 3 2 2 4 4 2 1 1 2 3 5 10
2 3 6 7 8 10 10 11 12 11 14 14 16 18 13 8 6 4 4 8 6 9 15 16 15 16 16 12 10 10 9 7 8 12 14 13 14 13 11 9 9 10 9 10 10 10 14 16 13 12 14 13 8 6 6 6 4 4 5 6 8 7 6 7 7 6 6 4 1 2 3 3 3 2 4 4 2 1 2 4 3 3 2 1 2 2 3 6
2 4 6 7 9 10 11 12 12 13 16 16 18 17 8 5 5 4 9 9 5 9 14 15 16 16 16 13 10 12 11 7 8 12 12 12 12 13 13 10 10 9 6 6 9 9 11 14 14 13 13 13 10 8 10 9 8 8 8 8 7 6 5 5 4 3 5 4 2 2 3 3 3 2 3 3 2 1 4 5 5 5 4 3 2 2 2 4
3 5 6 8 10 11 12 13 14 16 18 18 17 12 5 5 5 8 9 7 7 12 14 15 15 14 15 12 10 14 12 6 9 11 11 13 11 12 14 13 13 11 5 4 7 9 9 10 16 17 14 13 13 11 9 5 6 9 7 6 7 7 5 4 3 3 4 3 3 2 2 3 1 1 1 1 2 3 4 6 7 7 6 5 3 3 3 3
3 5 7 9 11 12 14 15 18 19 19 18 13 6 5 4 7 8 8 8 10 12 13 15 14 13 14 11 10 14 11 7 9 10 10 12 11 12 13 13 15 14 9 6 5 7 7 4 11 17 13 11 11 10 8 7 7 7 6 8 9 7 6 6 4 4 6 5 3 4 2 2 1 3 3 3 2 4 5 6 7 7 7 6 5 2 3 4
5 6 9 11 12 14 16 18 20 19 17 16 9 3 3 5 5 6 8 10 10 10 14 16 13 13 14 12 11 14 11 8 9 10 10 11 11 11 12 12 14 16 13 8 4 6 8 5 9 14 13 12 10 8 8 10 7 4 7 11 8 4 7 9 6 4 7 6 3 4 3 2 1 1 2 1 1 2 5 5 5 6 6 7 6 4 2 4
7 9 11 13 15 18 18 19 18 15 14 12 5 4 5 5 5 7 10 10 9 12 16 14 13 14 14 13 13 14 12 8 9 10 9 8 9 10 12 12 14 16 16 11 5 4 7 7 10 12 11 11 12 10 10 11 8 5 7 5 3 5 8 9 6 4 6 5 3 4 2 1 2 3 3 3 2 2 3 4 5 6 6 7 7 6 3 4
11 13 15 17 18 19 17 16 14 12 12 9 3 5 7 6 7 10 13 12 11 14 13 10 12 14 12 13 13 13 14 10 10 10 8 6 6 6 11 14 13 16 16 13 8 5 6 7 9 11 8 8 12 13 12 13 12 12 10 5 4 7 6 6 6 5 5 4 3 4 2 1 2 4 3 3 3 3 3 3 5 5 6 7 7 7 5 4
13 16 17 18 18 16 14 13 11 10 10 6 2 3 6 8 9 11 13 13 14 15 11 8 11 13 11 11 12 13 14 11 9 10 7 5 4 3 7 12 12 14 16 15 11 7 7 8 8 13 9 6 9 13 15 14 13 13 11 9 8 8 6 6 7 6 5 3 2 3 2 2 3 3 2 2 3 4 3 4 4 4 5 7 7 7 6 5
13 15 14 15 15 13 12 11 10 10 9 5 4 5 8 9 9 10 11 12 14 14 10 7 9 12 11 10 10 13 14 11 8 8 6 3 3 1 4 8 10 11 14 16 13 8 8 9 6 12 11 8 10 12 12 9 10 11 12 12 11 8 7 6 6 6 5 4 2 2 3 3 2 2 4 4 3 3 3 3 4 5 5 6 7 8 7 7
12 11 11 12 12 11 12 11 9 9 8 6 5 8 9 9 10 11 10 10 12 12 10 9 9 10 11 11 10 11 12 12 10 8 6 4 2 1 3 6 10 13 15 17 15 11 9 8 6 9 12 10 9 9 8 6 7 9 11 12 12 9 7 6 6 6 6 6 3 3 3 3 3 3 6 6 3 2 2 2 4 6 6 7 8 8 8 7
10 6 7 10 10 10 10 10 9 9 10 8 7 9 11 10 10 10 10 10 11 11 10 10 10 9 10 10 10 10 11 11 11 9 7 4 2 2 4 6 8 12 16 16 14 13 10 7 7 8 10 7 4 8 12 11 9 9 9 9 9 10 9 8 6 5 6 8 6 5 4 3 5 5 8 6 4 2 2 3 5 8 8 8 8 8 8 7
8 6 7 9 8 8 10 8 6 8 10 11 11 11 11 11 10 10 10 10 11 11 10 10 10 9 9 10 9 10 10 9 9 9 6 5 4 4 5 8 8 11 13 12 11 12 10 8 7 8 9 6 4 7 10 10 9 9 7 7 8 9 9 9 8 5 7 9 7 5 4 2 3 7 10 5 3 1 2 4 6 8 8 9 8 6 6 6
7 7 7 8 7 8 9 7 5 7 10 12 13 13 11 10 11 11 11 11 10 10 9 8 10 9 9 11 10 9 9 6 6 8 6 4 6 7 8 10 10 12 12 10 10 10 9 7 7 7 8 8 7 6 5 6 7 6 5 6 7 7 8 9 8 8 9 8 6 7 5 4 4 8 9 4 2 1 3 4 5 7 8 9 8 6 6 7
7 5 6 7 7 8 9 9 8 10 11 12 14 14 12 11 11 12 12 11 9 8 6 5 8 10 9 10 9 9 10 6 3 5 5 2 4 7 11 12 12 12 11 11 11 9 7 6 6 6 6 6 6 5 4 3 4 4 4 5 5 5 7 7 8 9 9 7 7 9 7 4 5 7 7 5 3 1 3 3 4 6 7 8 8 7 7 9
6 4 5 7 7 7 9 10 10 11 13 13 14 14 13 12 11 12 12 10 9 8 7 7 10 11 9 9 9 8 8 6 4 5 6 3 1 7 13 14 14 14 14 12 11 10 8 8 7 5 5 5 3 3 4 4 5 5 4 4 4 5 6 7 7 7 6 6 7 8 6 3 5 8 8 7 4 1 2 3 3 5 5 6 7 8 9 11
7 5 6 7 7 7 8 9 9 11 12 13 13 13 13 12 12 11 10 9 10 10 10 9 10 10 9 9 10 9 8 7 7 6 6 6 6 9 12 13 13 14 13 12 11 9 7 7 6 6 6 5 5 6 5 4 5 5 5 4 4 5 6 8 8 6 6 7 7 7 9 8 7 8 9 7 5 3 3 2 3 4 4 5 7 9 11 12
9 7 7 8 7 7 8 9 9 10 11 12 13 13 12 11 12 12 11 11 12 11 9 7 6 7 9 10 9 9 10 9 8 8 7 8 8 9 10 10 10 10 10 10 10 9 7 5 5 6 8 7 8 9 7 4 4 4 4 4 4 5 4 7 9 8 9 9 5 3 7 11 10 8 8 7 6 3 2 0 2 3 3 5 7 10 12 13
10 8 8 8 8 8 8 9 10 11 11 12 12 11 11 11 11 13 14 12 10 8 8 8 7 7 8 8 8 11 12 9 8 9 8 8 8 8 8 7 7 7 7 8 8 8 6 5 6 7 8 8 8 8 7 6 5 4 4 5 6 7 8 8 8 9 11 12 8 2 4 10 13 12 9 7 5 3 1 1 2 3 3 5 7 9 12 13
11 10 9 8 8 8 7 7 10 11 11 11 11 10 11 11 11 11 12 11 9 8 10 11 10 8 7 6 6 11 14 12 9 10 10 8 8 8 7 7 6 5 5 5 5 5 4 5 7 6 7 9 7 6 7 8 8 7 5 5 6 7 10 11 8 8 11 12 11 7 4 7 10 11 8 6 5 3 2 1 2 3 3 5 6 9 11 13
12 10 10 9 8 8 7 7 8 9 8 8 10 10 10 10 10 10 10 10 10 11 12 13 10 8 6 4 5 9 11 12 11 10 9 8 7 8 8 9 9 5 3 3 3 5 4 5 6 5 8 9 8 7 8 8 10 10 6 5 6 6 8 9 9 10 8 5 7 8 7 7 9 9 7 5 4 3 2 1 2 3 3 5 6 8 10 12
13 12 11 10 9 9 8 7 7 6 6 7 9 10 10 10 11 11 9 9 10 11 11 11 11 9 5 4 6 9 10 10 10 9 8 7 7 6 5 7 8 6 4 4 4 5 6 7 6 6 8 9 8 8 9 9 12 11 7 7 6 4 4 2 4 4 3 6 8 10 10 10 11 9 6 5 4 3 1 1 2 3 3 4 6 8 10 11
Wind_Direction
334 330 326 321 316 310 303 297 288 281 273 266 261 259 258 257 253 246 242 235 229 224 218 217 213 211 209 205 200 193 190 188 191 191 190 197 194 184 174 165 158 149 144 139 138 132 123 112 97 93 96 93 89 87 84 80 79 72 59 47 48 44 35 38 35 32 36 38 47 50 62 101 116 133 145 149 149 150 148 150 154 160 173 171 170 170 170 173
333 331 327 323 318 313 306 299 290 282 273 266 259 254 253 252 251 246 242 236 230 225 219 216 211 210 206 203 198 193 191 185 185 193 198 200 190 181 172 164 162 164 163 157 154 141 123 113 99 97 98 92 89 91 90 83 75 69 62 49 45 38 29 32 32 33 33 31 44 49 51 89 112 131 148 153 152 153 152 154 158 163 174 174 175 177 174 173
334 331 327 325 322 317 310 303 294 285 274 266 260 252 248 247 248 245 241 236 230 225 220 216 212 207 204 203 196 192 190 179 187 199 196 185 177 177 171 169 175 177 172 162 153 133 117 117 107 102 98 90 89 96 95 84 71 64 60 50 40 31 26 22 24 30 31 29 40 48 47 68 101 125 149 158 156 153 153 155 157 164 178 181 180 179 174 173
333 331 327 324 321 320 315 307 297 288 278 267 259 252 248 243 243 243 239 235 229 223 218 216 213 206 203 202 196 192 184 182 197 199 187 180 175 174 175 179 183 180 170 157 145 125 117 120 115 108 97 90 90 91 89 81 72 68 61 52 38 29 24 13 15 25 29 30 37 48 50 59 89 121 142 156 160 156 154 152 151 156 170 178 178 175 170 172
331 329 326 322 319 317 314 310 301 292 282 270 259 253 249 243 240 239 238 234 227 222 217 215 212 206 204 199 196 188 173 185 207 195 186 188 178 174 180 185 185 178 166 155 144 126 122 126 122 107 95 95 91 79 79 81 75 70 59 49 38 27 22 11 11 22 29 31 36 48 55 58 78 123 141 154 160 159 158 153 147 147 145 163 171 168 166 172
326 325 323 320 315 313 311 309 304 295 285 274 261 252 248 245 242 238 236 232 226 221 216 214 210 207 206 198 194 186 174 184 201 191 189 192 184 181 183 185 183 175 166 159 151 138 134 142 133 113 106 106 99 90 96 93 71 64 51 35 31 27 22 15 15 28 34 32 36 47 56 61 70 108 150 164 163 161 164 161 151 147 142 154 163 163 165 172
320 322 321 318 313 309 306 306 305 300 289 277 265 253 247 245 243 239 235 230 224 220 216 213 208 207 206 198 193 189 188 192 194 190 191 191 189 189 186 183 179 173 166 159 154 148 149 156 139 126 127 113 111 115 116 101 64 62 53 26 30 33 22 21 29 36 35 32 36 44 52 61 69 89 144 180 179 169 168 165 159 154 149 154 159 163 169 173
315 319 318 316 312 306 301 301 302 302 294 280 268 256 248 243 242 241 236 230 223 219 217 211 208 207 204 199 193 193 198 198 195 193 192 190 190 193 192 182 174 172 165 157 158 158 163 171 157 142 139 137 141 134 124 108 73 57 51 38 45 43 33 32 37 38 35 31 33 42 50 59 70 79 94 164 199 186 177 171 164 160 155 155 161 166 172 173
311 316 317 315 312 306 298 296 297 300 297 284 270 258 249 242 241 240 237 232 223 218 215 210 208 207 203 199 193 196 201 198 198 196 194 191 189 192 194 183 173 172 166 161 165 167 173 183 182 171 162 176 167 149 126 99 74 52 65 78 63 54 52 51 46 42 40 34 33 42 51 59 71 75 74 89 167 189 189 184 173 166 161 157 162 168 172 173
309 312 314 313 311 307 297 291 292 295 295 286 272 260 251 242 239 238 236 232 224 218 213 208 207 204 204 196 189 199 202 196 198 199 196 193 189 189 191 184 174 173 171 165 169 180 187 193 191 191 202 223 236 209 132 108 78 76 83 78 69 64 58 54 49 46 45 42 37 41 50 55 64 72 76 78 112 171 188 191 183 173 165 161 163 170 174 175
307 309 311 310 309 306 298 288 286 288 290 285 273 260 252 243 237 236 233 229 222 217 211 207 204 202 202 194 192 200 198 195 199 201 198 195 191 185 184 184 176 175 177 172 177 192 199 201 197 197 214 240 271 284 202 139 90 85 84 73 72 66 48 46 48 49 49 44 37 37 40 44 55 63 73 77 86 138 174 182 187 182 172 166 166 170 175 177
305 306 307 308 307 304 298 287 280 280 282 280 271 259 251 242 234 231 229 224 219 215 211 206 202 200 197 194 198 200 195 195 200 201 200 197 194 185 180 184 181 178 180 181 187 200 207 205 201 203 212 233 269 295 295 191 96 84 89 89 74 47 38 42 48 48 43 38 39 45 31 23 41 52 55 69 76 97 152 173 183 188 180 173 171 172 175 180
302 303 304 306 305 301 295 286 277 273 273 274 267 255 247 239 228 223 222 219 215 212 209 205 202 198 195 197 199 197 195 196 199 202 201 197 195 188 181 183 184 182 184 188 193 204 209 206 204 211 219 231 251 271 309 56 93 76 86 99 80 37 34 33 40 38 31 32 35 50 43 1 15 30 32 51 69 84 120 169 182 188 186 181 178 176 176 181
299 301 303 304 302 296 289 282 274 267 265 266 261 249 242 231 219 216 216 215 212 206 205 203 201 198 197 199 198 195 195 195 197 199 196 191 192 191 185 183 187 186 189 194 198 206 209 207 206 214 226 233 250 273 318 4 64 58 75 100 91 92 62 11 25 24 19 26 24 39 54 342 348 5 5 28 52 86 106 158 186 189 190 187 184 181 179 181
297 300 302 303 299 292 282 275 270 263 256 258 254 244 235 224 215 212 211 210 205 200 200 199 199 198 198 199 197 195 193 191 192 189 186 185 188 193 189 187 189 189 192 197 201 207 209 207 205 214 228 237 264 294 327 322 358 50 47 108 42 61 71 355 8 18 18 24 24 34 41 345 342 352 325 351 26 68 115 143 185 192 192 191 188 184 182 182
296 299 302 302 297 289 276 267 264 258 250 250 247 239 229 219 214 210 209 208 202 197 195 196 199 196 196 200 197 194 192 188 186 182 183 187 190 195 193 192 192 192 195 199 203 209 211 211 209 218 227 238 282 306 315 268 192 99 4 3 359 8 31 349 353 16 26 26 27 29 32 349 336 336 316 303 345 5 132 153 181 193 195 193 191 188 184 183
295 299 302 301 296 286 271 260 257 252 244 242 241 235 224 216 213 211 210 206 202 198 190 193 196 194 197 198 195 196 194 190 189 189 193 200 202 201 198 197 197 196 198 201 206 211 214 216 213 223 241 250 280 302 290 227 176 16 351 354 348 348 359 2 353 5 24 26 23 21 22 352 341 339 323 299 285 313 267 199 190 194 196 194 193 191 187 185
296 301 302 301 294 282 268 254 250 246 238 236 236 230 221 215 213 212 209 204 202 194 187 191 186 187 202 201 195 197 194 193 199 202 206 209 209 208 202 201 201 200 201 203 211 214 216 221 216 224 254 258 266 281 274 264 345 338 344 342 331 335 333 357 354 345 11 17 8 9 9 347 348 348 330 318 284 279 268 237 214 197 195 194 194 192 191 189
297 302 302 300 291 279 265 249 244 240 232 230 230 227 219 214 213 213 208 202 199 191 189 194 183 180 200 205 199 197 193 195 202 206 209 208 207 207 203 202 202 201 201 204 217 218 214 223 223 227 239 236 232 247 282 312 324 324 334 329 319 320 313 334 342 336 6 11 349 348 349 332 344 352 342 333 304 268 253 246 239 207 195 191 191 192 193 192
298 301 301 297 287 276 261 245 238 232 227 227 226 224 218 209 207 212 208 203 202 198 197 198 190 189 199 204 199 196 194 196 201 204 207 206 203 203 201 200 199 202 201 199 223 223 213 220 224 226 228 218 227 248 276 293 307 318 318 316 309 303 302 324 329 335 5 11 338 339 349 339 342 354 350 342 329 276 236 242 251 221 196 190 188 190 194 194
296 300 299 294 285 273 257 242 233 226 223 224 223 220 214 203 199 206 208 208 207 204 202 201 198 198 203 205 198 195 195 196 200 203 205 204 200 200 199 197 197 202 201 191 209 222 215 221 227 229 229 225 236 252 267 284 302 309 305 307 300 289 294 309 319 334 0 9 333 341 351 340 341 355 347 342 337 299 216 226 239 222 196 191 189 190 193 195
295 297 296 292 284 271 252 237 227 222 222 222 219 213 209 203 201 204 207 213 214 206 202 199 197 201 207 208 200 197 196 198 202 203 204 202 197 196 197 196 195 199 204 199 199 216 221 225 232 236 230 223 235 255 273 286 293 292 290 290 279 298 309 293 316 333 356 5 325 336 343 323 340 355 345 343 338 308 236 216 222 212 200 197 193 192 193 194
293 294 294 290 283 266 245 232 222 219 221 219 213 207 204 203 201 203 203 209 214 205 200 197 194 200 206 205 200 198 196 201 207 206 203 198 196 198 195 192 192 197 208 208 205 211 221 218 224 235 226 215 249 270 281 281 279 275 271 268 265 317 324 295 316 329 347 352 333 344 341 301 326 349 348 350 346 321 248 226 218 209 205 201 197 196 196 195
291 291 291 288 278 257 236 225 216 216 218 213 208 202 201 200 198 199 199 201 210 205 200 195 193 198 200 194 192 192 194 205 214 212 205 200 200 200 195 189 192 202 209 209 212 217 223 219 216 226 221 214 255 265 272 271 263 257 259 269 280 306 317 307 315 326 329 320 333 347 336 265 304 338 350 350 346 344 262 238 219 206 202 201 199 198 199 198
288 287 287 280 267 243 227 218 211 213 213 208 203 197 196 195 193 196 193 192 206 208 201 192 188 193 188 180 184 190 194 207 217 216 211 207 201 196 198 198 194 205 215 211 215 222 227 232 219 209 219 232 258 260 257 258 255 248 244 272 301 309 313 309 315 324 309 279 316 339 334 268 305 332 345 347 349 355 333 258 227 212 203 203 203 200 199 201
284 283 280 270 252 231 221 211 203 206 206 202 196 191 189 188 188 187 180 178 192 196 187 180 180 184 179 178 184 182 185 209 219 217 213 209 202 196 203 209 200 201 218 217 222 230 228 230 226 219 232 241 254 259 250 242 248 241 213 278 320 321 313 310 315 309 293 293 312 328 330 308 307 329 337 349 9 6 359 328 238 223 216 209 207 206 203 201
282 277 270 255 236 222 213 200 194 195 196 194 188 185 181 180 179 168 163 175 188 186 175 170 173 177 176 177 169 156 180 214 217 212 205 203 205 199 196 211 210 206 214 213 221 235 225 221 227 226 231 238 240 242 229 225 246 251 254 293 312 315 306 309 306 283 293 312 299 309 327 301 286 330 334 359 26 14 11 358 264 226 223 214 208 210 209 204
278 269 256 237 219 208 199 189 184 184 186 183 180 178 173 173 168 159 165 188 169 174 180 175 172 173 174 171 160 158 205 206 207 212 197 191 198 192 188 214 217 215 223 217 215 233 226 220 225 225 227 229 229 232 224 226 252 279 290 296 310 312 306 306 287 274 302 309 280 286 337 303 302 357 340 7 19 10 11 4 277 202 210 210 208 208 209 208
271 256 237 217 199 190 184 178 176 179 181 175 171 170 166 163 153 153 196 242 153 163 180 174 172 175 172 170 167 171 190 166 175 216 194 185 190 182 189 212 204 208 227 223 220 237 239 219 214 215 218 224 230 239 241 239 251 275 286 294 304 293 289 289 275 273 288 288 279 301 333 310 328 37 325 2 12 5 3 3 354 186 193 204 212 207 205 208
261 238 212 192 182 177 171 170 173 175 175 169 163 160 156 150 146 165 217 183 146 164 178 170 171 178 172 169 173 170 166 164 181 206 186 183 190 184 194 204 197 207 229 231 229 233 234 221 214 213 212 215 226 231 235 240 242 263 283 295 283 256 246 260 265 276 278 267 263 285 315 306 307 99 51 347 358 10 1 357 347 212 167 158 213 217 210 209
223 189 175 169 170 167 164 167 170 171 169 161 154 150 145 143 158 218 220 155 153 175 176 171 172 179 172 169 178 175 167 173 180 183 180 182 186 188 198 202 199 204 219 236 237 233 231 226 222 222 215 204 207 220 227 235 237 252 271 285 271 242 234 247 238 242 263 255 236 280 302 296 287 32 24 342 329 345 26 8 341 302 195 145 168 215 224 216
137 147 153 158 161 159 159 163 163 165 161 152 148 143 136 155 195 236 163 148 172 179 173 176 175 175 174 171 181 179 168 172 175 176 182 186 189 195 199 197 194 201 217 223 221 225 226 224 222 223 218 204 202 232 226 215 225 241 244 255 260 242 233 242 226 225 257 256 244 280 300 285 260 359 5 8 28 347 26 30 358 338 320 268 190 194 217 220
132 145 150 154 157 157 158 158 158 157 150 145 144 138 139 207 204 149 144 148 165 170 173 181 174 171 176 176 180 176 167 174 181 180 187 190 196 205 204 204 202 208 225 203 201 211 206 210 216 216 218 205 193 211 212 197 199 215 226 237 254 257 245 245 236 240 257 246 223 265 303 273 218 119 39 37 60 342 3 16 10 7 0 337 291 244 217 216
145 154 160 159 160 161 158 155 152 147 144 142 140 139 180 215 149 132 152 163 166 166 172 175 168 169 177 178 181 175 169 179 182 181 189 194 203 210 209 215 209 206 224 213 212 214 199 202 204 199 207 202 191 209 230 234 212 208 222 248 262 269 266 269 270 257 261 248 209 226 284 265 234 64 5 299 327 342 358 4 3 8 8 2 340 291 262 240
142 158 161 156 157 158 154 151 147 143 143 140 135 152 210 171 131 140 153 154 158 160 166 170 167 169 177 182 186 180 175 177 181 183 190 198 209 213 211 216 210 204 214 225 211 203 216 221 184 183 191 193 195 212 232 249 229 206 219 246 254 260 263 278 290 292 296 289 231 213 229 253 300 340 299 263 287 340 357 8 9 7 0 358 358 332 272 252
119 140 149 148 150 150 148 146 142 140 138 133 132 195 200 136 126 143 143 143 151 156 159 165 171 175 178 183 187 186 177 164 180 190 195 206 218 219 216 214 211 208 207 210 195 192 216 202 164 185 198 195 204 214 216 233 235 207 224 235 244 265 271 276 273 261 276 272 216 197 218 229 173 69 4 20 94 7 16 24 16 3 351 346 348 346 273 236
106 122 133 138 139 138 139 137 134 134 131 127 145 207 168 141 144 146 148 152 155 158 157 160 173 178 177 178 183 189 187 176 188 196 194 209 223 224 219 211 211 213 208 210 218 222 229 203 172 191 203 206 223 227 223 236 242 238 247 246 242 254 258 264 263 244 248 245 196 173 201 255 155 121 74 63 79 68 54 34 9 353 344 340 337 337 313 242
106 113 120 125 126 128 129 129 128 129 125 123 161 179 151 156 172 163 160 158 154 162 167 164 168 173 176 179 177 183 191 189 190 197 196 206 228 236 217 211 214 215 209 210 219 224 233 218 184 185 199 216 230 234 231 234 235 242 267 295 269 256 246 234 249 254 245 246 198 162 147 3 103 112 105 84 75 78 64 29 17 358 342 341 332 328 322 273
110 112 117 121 122 124 124 125 128 127 125 132 200 188 163 169 176 170 167 163 159 166 180 176 165 171 177 179 175 179 191 191 184 198 206 203 232 257 205 203 213 215 205 203 213 214 220 233 193 178 201 225 214 221 222 219 225 235 253 260 249 257 256 232 243 252 257 269 212 167 156 142 69 63 119 117 80 79 62 39 34 9 342 337 329 326 324 301
116 116 120 121 120 120 118 120 126 125 129 155 191 177 172 167 160 160 164 166 165 167 180 185 175 178 179 179 180 182 194 201 193 199 208 204 227 229 186 192 198 203 196 194 206 205 208 245 210 165 193 220 198 206 215 208 212 219 227 231 225 226 235 240 244 243 264 282 225 198 189 165 28 1 169 151 111 97 67 46 26 3 342 330 324 323 323 311
113 112 117 117 113 113 115 113 117 123 127 140 154 152 155 151 146 150 152 157 162 164 172 179 178 184 187 186 189 191 198 208 209 206 210 215 210 132 147 176 184 188 185 187 203 203 196 237 240 170 187 204 185 196 215 211 217 223 225 227 223 215 212 235 242 220 242 263 250 258 207 174 317 272 175 155 149 140 62 33 4 347 338 334 327 320 319 311
111 118 126 115 108 108 110 107 108 120 125 130 143 143 139 136 136 144 150 154 162 167 171 176 175 179 190 190 192 197 199 206 212 213 215 205 173 107 132 146 162 181 184 184 197 203 196 217 241 211 204 209 198 212 220 218 223 232 229 225 228 224 212 228 241 209 220 236 238 253 211 182 294 243 174 168 187 181 359 349 343 340 343 345 338 324 316 306
123 143 138 114 107 108 103 98 100 108 116 128 137 135 134 136 131 133 142 148 159 167 169 177 177 178 190 195 196 198 198 206 210 209 222 227 220 224 185 156 151 168 180 185 192 199 200 209 228 225 217 220 219 218 218 218 220 220 215 213 222 226 222 231 245 248 240 227 218 234 208 172 263 208 177 184 208 216 336 342 339 338 345 348 346 332 315 301
132 139 134 113 106 109 105 109 121 113 114 124 129 128 129 134 134 133 135 136 145 152 151 164 177 182 194 196 195 198 196 200 214 208 213 235 228 209 187 177 169 165 171 185 195 199 199 207 219 215 208 197 184 186 182 186 202 200 200 211 208 209 219 224 229 237 240 234 237 253 227 178 196 191 177 177 194 240 329 347 340 336 343 347 350 345 326 319
135 130 136 120 106 106 108 115 125 121 121 125 124 121 116 118 129 132 128 123 121 125 128 149 167 170 178 181 182 193 188 171 184 196 178 188 227 192 175 176 173 170 177 188 197 199 194 208 216 210 216 206 184 190 186 185 210 202 203 224 211 204 212 213 221 228 228 229 243 253 241 193 202 205 182 161 169 264 329 328 332 346 350 351 358 359 348 342
143 131 142 125 106 109 115 118 123 122 127 129 123 120 114 111 122 125 119 111 101 101 108 119 131 136 143 152 156 169 175 155 139 154 142 124 191 171 167 168 168 174 183 185 187 189 195 220 224 212 230 235 211 218 217 213 221 217 226 241 232 231 220 210 224 233 229 234 242 249 246 216 209 207 182 156 153 184 277 290 338 4 358 357 5 2 354 347
165 159 153 135 114 111 114 118 125 125 128 131 125 122 118 114 120 122 116 115 111 105 102 105 116 123 129 139 143 145 147 138 130 128 119 108 111 133 153 164 168 175 179 176 176 184 203 230 228 214 222 221 217 227 224 206 203 218 245 249 247 261 242 225 229 230 229 243 257 247 224 201 182 180 172 158 154 184 232 271 13 16 0 2 0 352 346 342
182 175 161 146 134 125 118 120 128 128 127 129 127 126 125 122 127 129 125 126 124 116 110 110 121 132 138 142 140 134 134 132 131 125 109 101 106 108 117 138 157 167 174 177 178 182 202 231 235 230 230 222 219 226 229 220 210 229 262 275 294 309 282 241 233 228 226 229 246 246 194 177 170 170 169 165 161 174 211 163 38 13 4 3 349 341 338 337
189 184 173 159 145 138 132 129 130 125 120 122 125 129 135 136 138 138 134 133 129 123 125 126 124 129 136 137 134 136 138 138 138 137 122 108 112 109 100 109 128 141 158 177 183 178 190 238 254 245 236 231 231 232 229 230 237 252 283 295 298 306 310 295 260 239 231 223 225 232 150 166 181 180 171 167 162 153 154 80 31 15 3 349 337 333 333 337
192 190 184 173 160 150 142 137 135 126 118 118 119 126 137 139 141 144 144 143 140 133 132 128 124 126 131 134 147 152 155 157 154 148 137 119 113 116 116 119 119 126 152 171 190 193 199 251 261 254 242 231 227 241 241 233 238 246 265 292 293 293 305 312 301 268 250 235 229 221 165 165 181 177 164 154 146 133 121 57 15 7 347 332 326 325 329 337
196 194 190 184 179 170 159 152 144 130 123 128 126 126 132 134 138 144 143 145 146 142 139 134 124 116 119 145 182 174 169 171 169 164 157 149 140 135 135 139 137 142 182 196 220 228 232 258 261 257 253 235 220 245 258 245 241 244 252 280 292 285 283 296 299 282 262 232 208 188 170 175 176 167 155 141 134 139 135 56 349 344 331 323 323 323 329 338
200 197 195 190 188 188 181 169 158 149 146 146 137 131 130 130 137 137 129 134 143 141 142 138 124 112 112 148 179 176 173 174 176 178 177 174 172 164 160 160 153 157 190 210 240 244 241 253 254 259 268 250 220 239 261 256 245 238 238 260 285 297 273 296 323 284 168 135 158 166 170 184 176 156 147 150 153 164 171 299 315 320 324 327 329 328 332 340
Height
3175 3175 3174 3174 3173 3173 3173 3172 3172 3172 3172 3172 3172 3172 3172 3172 3172 3172 3173 3173 3173 3174 3174 3175 3175 3176 3176 3177 3178 3178 3179 3179 3180 3181 3181 3181 3182 3183 3184 3185 3185 3186 3186 3186 3186 3187 3187 3188 3188 3188 3189 3188 3188 3188 3188 3188 3187 3187 3187 3188 3188 3187 3187 3186 3185 3185 3184 3184 3182 3181 3180 3180 3180 3180 3180 3181 3182 3183 3183 3184 3185 3186 3186 3187 3188 3190 3192 3193
3175 3174 3174 3173 3173 3172 3172 3171 3171 3171 3171 3171 3171 3171 3171 3171 3171 3172 3172 3172 3172 3173 3173 3174 3174 3175 3176 3176 3177 3178 3178 3179 3180 3180 3180 3180 3182 3183 3184 3185 3185 3186 3186 3186 3186 3187 3188 3189 3189 3189 3189 3189 3189 3189 3189 3189 3188 3188 3188 3189 3188 3188 3188 3186 3186 3185 3185 3185 3183 3182 3181 3181 3181 3181 3182 3182 3183 3184 3185 3185 3186 3187 3187 3188 3189 3190 3192 3194
3174 3173 3173 3172 3172 3171 3171 3170 3170 3170 3170 3170 3170 3170 3170 3170 3170 3171 3171 3171 3172 3172 3172 3173 3174 3174 3175 3175 3176 3177 3178 3179 3180 3179 3180 3181 3182 3183 3184 3185 3185 3186 3186 3186 3187 3188 3189 3189 3189 3190 3190 3190 3190 3190 3190 3190 3189 3189 3189 3190 3189 3188 3188 3187 3187 3186 3185 3185 3184 3183 3182 3181 3182 3182 3183 3183 3184 3185 3186 3186 3187 3188 3188 3189 3189 3191 3192 3194
3173 3173 3172 3172 3171 3171 3170 3170 3169 3169 3169 3168 3169 3169 3169 3169 3169 3169 3170 3170 3171 3171 3172 3172 3173 3174 3174 3175 3176 3177 3178 3179 3179 3179 3180 3181 3181 3183 3184 3185 3185 3186 3187 3187 3188 3188 3189 3189 3190 3190 3190 3191 3192 3191 3191 3191 3190 3190 3190 3191 3190 3189 3189 3188 3187 3186 3186 3185 3185 3184 3183 3182 3182 3183 3183 3184 3185 3186 3186 3187 3188 3189 3189 3190 3190 3191 3193 3195
3173 3172 3171 3171 3170 3170 3169 3169 3168 3168 3168 3168 3167 3168 3168 3168 3168 3168 3169 3169 3170 3170 3171 3171 3172 3173 3174 3174 3175 3176 3178 3179 3179 3179 3179 3180 3181 3182 3183 3184 3185 3186 3187 3188 3189 3189 3189 3190 3190 3190 3191 3192 3192 3192 3192 3191 3191 3191 3191 3191 3190 3189 3189 3188 3188 3187 3186 3185 3185 3185 3184 3184 3183 3183 3184 3184 3185 3186 3187 3187 3188 3189 3189 3190 3191 3192 3194 3196
3172 3171 3171 3170 3170 3169 3169 3168 3168 3167 3167 3167 3166 3166 3167 3167 3167 3167 3168 3168 3169 3169 3170 3170 3171 3172 3173 3174 3175 3176 3177 3178 3177 3178 3179 3179 3180 3181 3182 3184 3185 3187 3188 3189 3189 3189 3190 3190 3191 3191 3192 3192 3193 3192 3192 3192 3192 3191 3191 3191 3191 3190 3189 3189 3188 3187 3187 3186 3185 3185 3185 3184 3184 3184 3184 3185 3186 3186 3187 3188 3188 3189 3189 3190 3192 3193 3195 3197
3171 3170 3170 3169 3169 3168 3168 3167 3167 3166 3166 3166 3166 3165 3166 3166 3166 3166 3167 3167 3168 3168 3169 3170 3170 3171 3172 3173 3174 3175 3176 3176 3177 3178 3178 3179 3180 3181 3182 3184 3185 3187 3188 3189 3190 3190 3190 3190 3191 3192 3192 3193 3193 3193 3193 3192 3192 3192 3192 3192 3191 3190 3190 3189 3188 3188 3187 3186 3186 3186 3186 3185 3185 3185 3185 3184 3185 3186 3187 3188 3188 3189 3190 3191 3193 3195 3196 3198
3170 3170 3169 3168 3168 3167 3167 3166 3166 3166 3165 3165 3165 3165 3165 3165 3165 3165 3166 3166 3167 3167 3168 3169 3170 3170 3171 3172 3173 3175 3175 3176 3176 3177 3178 3179 3180 3181 3182 3184 3186 3187 3188 3189 3190 3190 3190 3191 3191 3192 3192 3193 3193 3193 3193 3193 3193 3193 3192 3192 3191 3191 3190 3189 3189 3188 3188 3187 3186 3186 3186 3186 3186 3185 3185 3185 3185 3186 3187 3188 3189 3190 3191 3192 3193 3195 3197 3199
3169 3168 3168 3167 3167 3166 3166 3165 3165 3165 3164 3164 3164 3164 3164 3164 3164 3164 3165 3165 3166 3166 3167 3168 3169 3170 3171 3172 3173 3174 3174 3175 3176 3177 3177 3179 3180 3181 3183 3184 3186 3187 3188 3189 3190 3190 3191 3191 3192 3192 3192 3192 3193 3193 3193 3193 3193 3193 3192 3192 3192 3191 3190 3190 3189 3188 3188 3187 3187 3186 3186 3186 3186 3186 3185 3185 3185 3186 3187 3188 3189 3190 3192 3192 3193 3195 3197 3199
3168 3167 3167 3166 3166 3165 3165 3164 3164 3164 3164 3163 3163 3163 3163 3163 3163 3163 3163 3164 3165 3165 3166 3167 3168 3169 3170 3171 3173 3173 3174 3175 3175 3176 3177 3178 3179 3181 3183 3184 3186 3187 3188 3189 3190 3190 3190 3191 3192 3192 3192 3192 3192 3193 3193 3193 3193 3193 3192 3192 3192 3192 3191 3190 3190 3189 3188 3188 3187 3187 3186 3186 3186 3186 3186 3186 3185 3186 3187 3188 3190 3191 3192 3192 3193 3195 3197 3199
3167 3166 3166 3165 3164 3164 3164 3163 3163 3163 3163 3162 3162 3162 3162 3162 3162 3162 3162 3163 3163 3164 3165 3166 3167 3168 3169 3170 3172 3172 3173 3174 3174 3175 3176 3178 3179 3180 3182 3184 3185 3186 3188 3189 3189 3189 3190 3190 3191 3192 3192 3192 3192 3192 3193 3193 3193 3193 3193 3192 3192 3192 3192 3191 3190 3189 3189 3188 3188 3187 3187 3187 3187 3186 3186 3186 3186 3186 3187 3188 3189 3190 3192 3193 3193 3195 3197 3198
3165 3165 3164 3164 3163 3163 3162 3162 3162 3162 3162 3161 3161 3161 3161 3161 3161 3161 3161 3162 3162 3163 3164 3165 3166 3167 3168 3169 3170 3171 3172 3173 3174 3174 3176 3177 3178 3179 3181 3182 3184 3185 3186 3187 3188 3188 3189 3190 3191 3192 3192 3192 3192 3192 3193 3193 3193 3193 3193 3193 3193 3193 3192 3192 3191 3190 3189 3188 3188 3187 3187 3187 3187 3187 3186 3186 3186 3186 3186 3187 3189 3190 3191 3192 3193 3195 3196 3198
3163 3163 3163 3162 3162 3161 3161 3160 3160 3160 3160 3160 3160 3160 3160 3160 3160 3160 3161 3161 3162 3162 3163 3164 3165 3166 3167 3168 3169 3170 3171 3172 3173 3174 3175 3177 3178 3179 3180 3181 3183 3184 3185 3186 3186 3187 3188 3189 3190 3191 3191 3192 3192 3192 3192 3193 3193 3193 3193 3193 3193 3193 3193 3192 3191 3190 3189 3189 3188 3188 3188 3188 3187 3187 3186 3186 3186 3186 3186 3187 3188 3189 3190 3192 3193 3194 3196 3197
3162 3161 3161 3161 3160 3160 3160 3159 3159 3159 3159 3159 3159 3159 3159 3159 3159 3160 3160 3161 3161 3162 3162 3163 3164 3165 3166 3167 3168 3170 3171 3172 3172 3173 3175 3176 3178 3179 3179 3180 3182 3183 3184 3185 3186 3186 3188 3189 3190 3191 3191 3192 3192 3192 3193 3193 3193 3193 3193 3193 3193 3194 3194 3192 3191 3190 3189 3189 3188 3187 3188 3188 3187 3186 3186 3186 3186 3186 3186 3187 3187 3188 3189 3191 3192 3194 3195 3197
3160 3160 3159 3159 3159 3158 3158 3157 3157 3157 3158 3158 3158 3158 3158 3158 3159 3159 3160 3160 3160 3161 3161 3162 3163 3164 3166 3167 3168 3169 3170 3171 3172 3173 3174 3176 3177 3178 3179 3180 3181 3182 3183 3184 3185 3186 3187 3189 3190 3191 3191 3192 3192 3193 3193 3194 3194 3194 3194 3193 3193 3193 3194 3192 3191 3191 3190 3189 3188 3187 3188 3188 3186 3186 3186 3186 3186 3186 3186 3186 3187 3187 3189 3190 3192 3193 3195 3197
3158 3158 3157 3157 3156 3156 3156 3156 3155 3156 3156 3157 3157 3157 3157 3157 3158 3158 3159 3159 3160 3160 3161 3162 3163 3164 3165 3166 3167 3168 3170 3171 3172 3173 3174 3175 3176 3177 3178 3179 3180 3182 3182 3184 3185 3186 3188 3189 3190 3191 3191 3192 3193 3193 3194 3194 3194 3194 3194 3194 3193 3193 3193 3193 3192 3191 3190 3189 3188 3187 3188 3188 3186 3185 3185 3185 3186 3186 3186 3186 3186 3187 3188 3189 3191 3192 3194 3196
3156 3156 3155 3155 3154 3154 3154 3154 3153 3154 3155 3155 3155 3156 3156 3157 3157 3158 3158 3159 3159 3160 3160 3161 3162 3163 3164 3165 3167 3167 3169 3170 3172 3173 3173 3175 3176 3177 3178 3179 3180 3182 3183 3184 3185 3187 3188 3189 3191 3192 3192 3193 3193 3194 3194 3193 3193 3194 3194 3194 3193 3193 3193 3193 3192 3191 3190 3189 3189 3188 3187 3187 3186 3185 3185 3184 3185 3185 3185 3186 3186 3186 3187 3188 3190 3192 3194 3195
3154 3154 3153 3152 3152 3151 3151 3151 3151 3152 3153 3154 3154 3155 3155 3156 3156 3157 3158 3158 3159 3159 3160 3161 3162 3164 3164 3165 3165 3166 3168 3170 3171 3172 3173 3174 3175 3176 3178 3179 3180 3182 3183 3185 3186 3187 3189 3190 3191 3193 3194 3194 3194 3195 3194 3193 3194 3194 3194 3194 3193 3193 3193 3193 3193 3191 3190 3189 3189 3188 3187 3187 3186 3184 3184 3183 3184 3184 3184 3184 3185 3185 3185 3187 3189 3191 3193 3194
3152 3152 3151 3150 3149 3149 3149 3149 3150 3151 3152 3153 3153 3154 3154 3155 3156 3156 3157 3158 3158 3159 3160 3160 3161 3163 3163 3163 3164 3166 3167 3169 3170 3171 3172 3174 3175 3176 3178 3179 3181 3183 3184 3186 3187 3187 3189 3191 3192 3193 3194 3194 3194 3194 3194 3193 3194 3194 3193 3193 3193 3193 3193 3193 3193 3191 3190 3189 3189 3189 3188 3187 3185 3184 3183 3182 3182 3183 3183 3183 3183 3184 3184 3185 3187 3190 3192 3194
3150 3149 3149 3148 3147 3147 3147 3147 3148 3149 3150 3151 3152 3153 3153 3154 3155 3156 3156 3157 3157 3158 3159 3159 3160 3161 3162 3163 3164 3166 3167 3168 3169 3171 3172 3173 3175 3176 3177 3179 3181 3183 3184 3187 3188 3188 3190 3191 3192 3193 3194 3193 3192 3192 3192 3193 3193 3193 3193 3193 3193 3193 3193 3193 3192 3191 3190 3189 3190 3189 3188 3187 3185 3184 3183 3181 3181 3181 3182 3182 3182 3183 3183 3184 3186 3188 3191 3193
3148 3147 3147 3146 3145 3145 3145 3145 3146 3148 3149 3150 3151 3152 3153 3154 3154 3155 3155 3156 3157 3157 3158 3159 3160 3161 3162 3163 3164 3165 3167 3168 3169 3170 3171 3173 3174 3176 3178 3179 3181 3183 3184 3187 3188 3187 3189 3191 3192 3192 3191 3191 3191 3192 3192 3192 3192 3193 3193 3193 3193 3193 3192 3192 3191 3190 3189 3189 3190 3188 3187 3186 3185 3184 3182 3181 3180 3180 3181 3181 3181 3182 3182 3184 3185 3187 3189 3191
3146 3145 3145 3144 3143 3143 3143 3143 3145 3146 3147 3149 3150 3151 3151 3152 3153 3154 3155 3156 3156 3157 3158 3159 3159 3160 3161 3162 3164 3165 3166 3168 3168 3170 3171 3172 3174 3176 3178 3179 3181 3184 3185 3186 3187 3188 3189 3191 3191 3190 3189 3190 3191 3191 3191 3192 3192 3193 3193 3193 3192 3192 3191 3191 3190 3190 3189 3189 3189 3188 3187 3186 3184 3183 3182 3181 3180 3179 3180 3180 3181 3181 3182 3183 3184 3185 3187 3189
3144 3143 3143 3142 3141 3142 3142 3142 3143 3145 3146 3148 3149 3150 3150 3151 3152 3154 3155 3156 3156 3157 3157 3158 3159 3160 3161 3162 3163 3165 3167 3168 3168 3169 3171 3172 3174 3175 3177 3179 3182 3184 3184 3185 3187 3189 3189 3189 3189 3188 3189 3190 3191 3191 3192 3192 3192 3193 3193 3193 3192 3191 3191 3190 3190 3190 3189 3189 3188 3187 3186 3185 3184 3183 3182 3180 3179 3179 3179 3179 3180 3180 3181 3181 3183 3184 3185 3187
3142 3141 3141 3140 3140 3140 3140 3141 3142 3144 3145 3147 3148 3148 3149 3150 3151 3153 3154 3155 3156 3156 3157 3158 3159 3160 3161 3162 3163 3165 3167 3168 3169 3170 3171 3172 3173 3175 3178 3179 3182 3183 3184 3185 3187 3188 3188 3188 3187 3187 3188 3190 3191 3192 3192 3192 3193 3192 3192 3192 3192 3191 3191 3191 3190 3190 3189 3188 3187 3186 3185 3184 3183 3182 3181 3180 3179 3178 3178 3178 3178 3179 3180 3180 3181 3182 3184 3186
3140 3139 3139 3138 3138 3139 3139 3140 3142 3143 3144 3145 3146 3147 3148 3149 3151 3152 3153 3155 3156 3156 3157 3158 3159 3160 3160 3162 3163 3165 3167 3168 3169 3169 3171 3172 3174 3176 3178 3179 3181 3184 3184 3184 3185 3187 3188 3187 3186 3187 3189 3190 3191 3191 3192 3192 3192 3192 3191 3191 3191 3191 3191 3191 3190 3189 3189 3188 3187 3187 3185 3182 3182 3182 3181 3180 3179 3178 3177 3177 3178 3178 3178 3179 3180 3181 3182 3184
3138 3137 3137 3136 3137 3137 3138 3139 3141 3142 3143 3144 3145 3146 3147 3148 3150 3152 3153 3155 3156 3156 3157 3158 3159 3160 3161 3162 3163 3165 3167 3168 3168 3169 3170 3172 3174 3175 3177 3178 3180 3183 3183 3183 3185 3185 3186 3186 3186 3187 3188 3189 3190 3191 3191 3190 3191 3191 3190 3190 3191 3190 3190 3190 3190 3189 3188 3187 3187 3187 3186 3183 3181 3182 3181 3179 3178 3177 3177 3177 3177 3177 3177 3178 3178 3180 3181 3183
3135 3135 3135 3135 3135 3136 3137 3139 3140 3141 3142 3143 3144 3145 3147 3148 3150 3151 3153 3155 3155 3155 3157 3158 3159 3160 3161 3162 3164 3166 3168 3167 3167 3168 3169 3171 3173 3175 3178 3179 3179 3180 3181 3182 3184 3183 3184 3185 3185 3186 3188 3188 3189 3190 3189 3189 3190 3190 3189 3190 3190 3190 3190 3189 3189 3188 3187 3187 3186 3186 3187 3184 3181 3181 3181 3179 3179 3178 3177 3176 3176 3176 3177 3177 3177 3178 3179 3181
3133 3133 3133 3134 3134 3135 3137 3138 3139 3141 3141 3142 3144 3145 3146 3148 3149 3151 3153 3152 3152 3154 3156 3157 3158 3159 3161 3162 3164 3166 3166 3167 3168 3168 3168 3170 3172 3175 3178 3179 3179 3180 3180 3181 3183 3182 3182 3184 3185 3186 3187 3188 3189 3189 3188 3188 3189 3189 3189 3189 3188 3189 3189 3188 3188 3187 3187 3187 3185 3185 3186 3183 3180 3180 3180 3179 3179 3178 3177 3176 3176 3176 3176 3176 3176 3177 3178 3180
3132 3132 3132 3133 3134 3135 3136 3138 3139 3140 3141 3142 3143 3144 3146 3148 3149 3152 3152 3150 3151 3154 3156 3157 3158 3159 3161 3162 3164 3165 3166 3167 3168 3167 3167 3169 3171 3174 3177 3177 3178 3180 3179 3180 3182 3182 3182 3183 3183 3184 3185 3187 3188 3188 3188 3188 3188 3188 3188 3187 3188 3188 3188 3188 3187 3186 3187 3186 3183 3183 3185 3182 3179 3179 3180 3179 3179 3179 3178 3177 3177 3177 3176 3176 3176 3176 3177 3179
3131 3131 3132 3132 3133 3135 3136 3138 3139 3139 3141 3142 3143 3145 3146 3148 3150 3152 3151 3150 3152 3154 3154 3156 3158 3159 3161 3163 3164 3165 3166 3167 3166 3167 3168 3170 3171 3173 3175 3175 3177 3179 3179 3179 3180 3180 3180 3181 3181 3181 3183 3185 3186 3186 3187 3187 3187 3188 3187 3187 3187 3187 3187 3187 3187 3186 3186 3183 3181 3183 3185 3184 3180 3178 3179 3180 3179 3180 3179 3178 3177 3177 3177 3177 3177 3176 3177 3178
3130 3131 3131 3132 3134 3135 3136 3137 3138 3139 3141 3142 3143 3145 3147 3149 3151 3150 3148 3149 3152 3153 3154 3156 3158 3159 3161 3164 3165 3165 3166 3167 3167 3167 3169 3170 3172 3173 3174 3175 3176 3178 3179 3179 3179 3179 3180 3180 3181 3182 3182 3183 3184 3185 3186 3186 3186 3187 3187 3188 3186 3185 3185 3185 3184 3185 3184 3180 3181 3183 3185 3184 3180 3178 3179 3180 3180 3180 3180 3179 3178 3178 3178 3178 3177 3177 3177 3178
3131 3131 3132 3133 3134 3135 3136 3137 3138 3139 3141 3142 3144 3146 3148 3150 3150 3148 3147 3150 3152 3152 3154 3156 3157 3159 3162 3164 3165 3165 3166 3167 3167 3168 3170 3171 3172 3173 3174 3175 3176 3177 3177 3177 3178 3178 3179 3179 3180 3182 3182 3183 3184 3185 3186 3187 3187 3187 3187 3187 3185 3182 3183 3182 3181 3182 3181 3179 3181 3183 3184 3183 3180 3179 3180 3180 3180 3179 3179 3179 3179 3178 3178 3178 3178 3178 3178 3178
3131 3132 3132 3133 3134 3135 3136 3137 3138 3140 3141 3143 3145 3146 3149 3149 3148 3148 3149 3150 3151 3152 3154 3155 3157 3159 3162 3163 3165 3165 3166 3167 3167 3169 3170 3171 3172 3173 3174 3174 3175 3175 3175 3175 3177 3176 3177 3179 3180 3181 3182 3182 3183 3184 3184 3185 3186 3186 3186 3185 3183 3180 3181 3181 3179 3180 3180 3178 3180 3183 3183 3181 3179 3179 3181 3180 3180 3179 3179 3179 3178 3178 3178 3178 3178 3178 3178 3178
3132 3132 3132 3133 3134 3135 3136 3137 3139 3140 3142 3144 3145 3147 3149 3148 3146 3148 3150 3150 3150 3151 3153 3155 3157 3160 3161 3163 3164 3164 3166 3167 3167 3168 3170 3171 3171 3172 3173 3173 3173 3175 3175 3175 3175 3175 3174 3175 3176 3179 3180 3181 3182 3183 3183 3183 3183 3184 3184 3184 3183 3180 3180 3180 3178 3179 3179 3178 3179 3182 3182 3180 3178 3179 3180 3180 3179 3179 3179 3179 3178 3178 3178 3178 3178 3178 3179 3179
3132 3132 3133 3133 3134 3135 3136 3138 3139 3141 3142 3144 3145 3148 3148 3147 3147 3149 3150 3150 3150 3152 3153 3156 3158 3160 3162 3163 3164 3164 3165 3166 3167 3168 3169 3170 3170 3171 3171 3172 3172 3174 3175 3175 3174 3174 3174 3173 3173 3176 3178 3180 3182 3183 3183 3183 3182 3183 3184 3184 3182 3181 3181 3180 3179 3180 3180 3178 3179 3179 3180 3180 3179 3180 3180 3180 3179 3179 3179 3179 3178 3178 3178 3178 3178 3178 3179 3179
3133 3133 3133 3133 3134 3136 3137 3138 3140 3142 3143 3144 3146 3149 3149 3147 3148 3149 3149 3150 3151 3152 3154 3156 3158 3160 3161 3162 3163 3164 3165 3165 3166 3168 3168 3169 3169 3169 3170 3171 3171 3172 3174 3174 3174 3174 3174 3173 3174 3176 3178 3179 3181 3182 3183 3183 3182 3182 3183 3181 3180 3181 3182 3180 3179 3181 3181 3179 3178 3177 3178 3179 3179 3180 3180 3180 3180 3180 3179 3179 3179 3178 3178 3178 3178 3178 3178 3178
3134 3134 3134 3134 3135 3137 3138 3140 3141 3143 3144 3144 3146 3149 3148 3148 3148 3148 3148 3150 3151 3152 3154 3156 3157 3159 3160 3162 3163 3164 3165 3165 3166 3167 3167 3168 3168 3167 3168 3170 3170 3171 3172 3173 3174 3174 3173 3172 3174 3176 3177 3178 3180 3181 3182 3182 3182 3182 3181 3179 3180 3182 3182 3181 3179 3180 3180 3178 3176 3177 3178 3179 3178 3180 3181 3181 3181 3181 3180 3180 3179 3178 3178 3178 3177 3178 3178 3178
3135 3135 3136 3136 3137 3139 3140 3141 3142 3143 3144 3145 3146 3148 3147 3148 3148 3147 3148 3149 3151 3153 3154 3155 3156 3158 3160 3161 3162 3163 3164 3164 3165 3166 3166 3167 3166 3166 3167 3168 3168 3169 3171 3173 3174 3174 3174 3172 3173 3176 3177 3177 3178 3180 3180 3180 3181 3181 3180 3179 3181 3181 3181 3181 3181 3180 3179 3177 3176 3176 3178 3179 3179 3179 3181 3181 3181 3181 3181 3180 3179 3179 3178 3178 3177 3177 3178 3178
3137 3137 3138 3139 3139 3140 3141 3142 3143 3143 3144 3145 3147 3148 3147 3147 3147 3147 3148 3149 3150 3152 3154 3156 3156 3157 3159 3160 3161 3163 3163 3163 3165 3165 3165 3165 3165 3165 3166 3167 3167 3168 3170 3172 3174 3174 3175 3172 3171 3174 3177 3177 3177 3178 3177 3178 3179 3180 3180 3180 3181 3181 3181 3181 3181 3179 3178 3176 3176 3177 3179 3179 3180 3180 3181 3181 3181 3182 3181 3180 3180 3180 3179 3178 3178 3177 3178 3178
3139 3140 3140 3141 3141 3141 3142 3142 3143 3143 3144 3145 3147 3147 3147 3147 3147 3148 3148 3149 3150 3152 3154 3156 3157 3157 3159 3160 3161 3162 3163 3163 3164 3165 3165 3165 3165 3165 3165 3166 3167 3168 3169 3172 3174 3174 3175 3173 3169 3172 3176 3175 3175 3176 3175 3176 3177 3178 3179 3179 3179 3180 3180 3180 3180 3179 3179 3177 3176 3178 3179 3180 3180 3181 3181 3181 3181 3181 3181 3180 3180 3180 3179 3178 3178 3177 3177 3177
3141 3142 3142 3142 3142 3142 3143 3143 3144 3144 3144 3146 3146 3146 3146 3147 3147 3148 3149 3150 3151 3152 3153 3155 3156 3158 3158 3159 3161 3161 3162 3163 3164 3164 3165 3165 3164 3164 3164 3165 3166 3167 3168 3170 3173 3173 3174 3174 3171 3171 3173 3173 3173 3174 3174 3175 3176 3176 3177 3176 3177 3178 3180 3180 3179 3179 3180 3178 3177 3178 3179 3179 3180 3180 3180 3181 3180 3180 3180 3180 3180 3179 3179 3178 3178 3177 3177 3177
3142 3144 3144 3143 3143 3144 3143 3144 3144 3145 3145 3146 3146 3146 3146 3147 3147 3148 3149 3150 3151 3152 3153 3154 3155 3157 3158 3159 3160 3161 3161 3162 3163 3164 3164 3164 3164 3165 3164 3165 3166 3167 3168 3170 3172 3173 3173 3174 3173 3172 3172 3172 3172 3173 3174 3174 3175 3175 3175 3175 3176 3177 3179 3180 3178 3177 3179 3178 3178 3178 3178 3179 3179 3179 3179 3180 3179 3179 3179 3179 3179 3179 3178 3178 3177 3177 3176 3176
3143 3144 3145 3144 3144 3144 3144 3145 3146 3146 3145 3146 3146 3146 3147 3147 3148 3148 3149 3150 3151 3152 3153 3154 3155 3156 3158 3158 3159 3160 3161 3162 3162 3163 3164 3164 3165 3165 3164 3165 3165 3167 3169 3170 3171 3172 3172 3173 3173 3172 3172 3172 3172 3172 3173 3173 3174 3174 3175 3175 3176 3177 3178 3178 3178 3178 3177 3176 3177 3178 3177 3179 3179 3178 3178 3179 3179 3179 3179 3179 3179 3178 3177 3177 3177 3176 3176 3175
3144 3144 3145 3145 3145 3145 3145 3145 3146 3146 3146 3147 3147 3147 3148 3148 3148 3149 3149 3150 3151 3152 3153 3154 3155 3156 3157 3157 3158 3159 3160 3161 3161 3162 3163 3163 3163 3163 3163 3164 3165 3167 3169 3171 3171 3171 3172 3172 3172 3172 3171 3172 3172 3172 3173 3173 3174 3174 3175 3175 3175 3176 3177 3177 3177 3178 3177 3175 3177 3178 3176 3177 3178 3178 3178 3178 3179 3179 3179 3179 3179 3178 3177 3176 3176 3176 3175 3175
3144 3145 3146 3146 3146 3146 3146 3146 3146 3146 3147 3147 3148 3148 3149 3149 3149 3149 3150 3151 3152 3152 3153 3154 3154 3155 3156 3156 3158 3159 3160 3161 3162 3161 3162 3163 3163 3162 3163 3164 3165 3167 3169 3169 3170 3171 3172 3172 3172 3172 3171 3171 3171 3172 3173 3174 3174 3174 3175 3175 3174 3174 3175 3176 3176 3176 3176 3177 3179 3178 3176 3176 3177 3178 3178 3179 3179 3179 3179 3178 3178 3177 3177 3176 3175 3175 3175 3175
3145 3146 3146 3147 3147 3147 3147 3147 3147 3147 3147 3148 3149 3149 3150 3150 3151 3151 3151 3152 3152 3153 3154 3154 3154 3155 3156 3157 3158 3159 3160 3161 3162 3162 3162 3163 3163 3162 3162 3163 3164 3166 3167 3168 3168 3170 3171 3172 3172 3172 3172 3171 3172 3173 3174 3174 3175 3175 3175 3175 3174 3173 3173 3174 3175 3174 3175 3177 3178 3178 3177 3177 3177 3178 3178 3179 3179 3179 3178 3178 3177 3177 3176 3175 3175 3175 3174 3174
3145 3146 3147 3147 3148 3148 3148 3148 3148 3148 3148 3149 3149 3150 3150 3151 3152 3152 3152 3153 3153 3154 3155 3155 3156 3156 3157 3158 3159 3160 3160 3161 3162 3162 3163 3163 3163 3162 3162 3163 3164 3165 3166 3167 3168 3170 3171 3171 3171 3172 3173 3172 3173 3174 3174 3174 3174 3175 3175 3174 3173 3172 3172 3173 3174 3174 3175 3176 3175 3176 3177 3177 3177 3178 3178 3178 3178 3178 3177 3177 3176 3176 3175 3175 3174 3174 3173 3173
3145 3146 3146 3147 3148 3148 3149 3149 3149 3149 3149 3150 3150 3151 3151 3152 3152 3153 3153 3154 3154 3155 3156 3156 3157 3157 3158 3159 3160 3160 3161 3162 3163 3163 3163 3164 3164 3164 3164 3164 3165 3166 3167 3167 3168 3169 3171 3171 3171 3172 3172 3172 3173 3173 3173 3173 3173 3174 3174 3173 3172 3172 3171 3172 3173 3174 3175 3175 3173 3173 3175 3176 3176 3177 3177 3177 3176 3176 3176 3176 3176 3175 3175 3174 3174 3173 3172 3171
3144 3145 3146 3147 3148 3149 3149 3150 3150 3150 3150 3150 3151 3151 3152 3152 3153 3153 3153 3155 3155 3156 3157 3157 3157 3158 3159 3160 3161 3161 3162 3163 3163 3163 3164 3165 3165 3166 3166 3166 3166 3167 3167 3168 3168 3169 3170 3171 3172 3172 3171 3171 3172 3172 3172 3172 3172 3172 3172 3172 3171 3171 3170 3170 3171 3172 3173 3173 3172 3173 3173 3174 3173 3174 3176 3175 3175 3175 3175 3175 3175 3174 3174 3173 3173 3172 3171 3170
3144 3145 3146 3147 3148 3149 3150 3150 3150 3151 3151 3151 3152 3152 3153 3153 3154 3154 3154 3155 3156 3156 3157 3158 3158 3159 3159 3160 3161 3161 3161 3162 3163 3164 3164 3165 3166 3166 3167 3168 3168 3168 3169 3169 3169 3169 3170 3171 3171 3171 3171 3170 3171 3171 3171 3171 3171 3171 3171 3171 3170 3170 3169 3168 3169 3169 3169 3170 3170 3171 3173 3173 3172 3173 3174 3174 3173 3174 3174 3173 3173 3173 3173 3172 3172 3171 3170 3169
3143 3144 3146 3147 3148 3149 3150 3151 3151 3151 3152 3152 3152 3153 3153 3154 3154 3155 3155 3156 3156 3157 3157 3158 3159 3160 3160 3160 3161 3161 3162 3162 3163 3164 3164 3165 3166 3166 3167 3167 3168 3169 3170 3170 3170 3170 3170 3170 3171 3171 3170 3168 3170 3170 3170 3170 3170 3170 3170 3169 3170 3170 3169 3168 3167 3167 3167 3168 3169 3171 3172 3172 3171 3172 3172 3173 3173 3173 3173 3172 3172 3172 3172 3171 3171 3170 3169 3168
3142 3144 3145 3146 3147 3148 3149 3151 3151 3152 3153 3153 3153 3154 3154 3154 3155 3155 3156 3157 3157 3157 3158 3158 3159 3161 3161 3161 3161 3162 3162 3163 3163 3164 3164 3165 3165 3166 3166 3167 3167 3168 3170 3170 3171 3171 3171 3171 3170 3170 3169 3167 3168 3169 3170 3170 3169 3169 3168 3168 3169 3169 3168 3167 3166 3166 3166 3167 3168 3170 3171 3171 3170 3171 3172 3172 3172 3172 3172 3171 3171 3171 3171 3170 3170 3169 3168 3167